Home   Weather   Eferding   Past weeks

Flag for Austria Past Weather in Eferding, Upper Austria, Austria — Yesterday and Last 2 Weeks

Now
67 °F

Overcast.


Feels Like: 67 °F
Forecast: 46 / 70 °F
Wind: N/A

Location: Linz / Hoersching-Flughafen

Current Time: Sep 26, 2016 at 7:24:56 PM

Latest Report: Sep 26, 2016 at 7:00 PM


Visibility: 19 mi

Pressure: 30.13 "Hg

Humidity: 60%

Dew Point: 52 °F

Location of EferdingLocation

Past Weather in Eferding — Graph

°F

Eferding Temperature Yesterday

Maximum temperature yesterday: 71 °F (at 5:00 PM)
Minimum temperature yesterday: 43 °F (at 8:00 AM)
Average temperature yesterday: 56 °F

High & Low Weather Summary for the Past Weeks

 TemperatureHumidityPressure
High85 °F (Sep 12, 3:00 PM)100% (Sep 26, 7:00 AM)30.39 "Hg (Sep 26, 7:00 AM)
Low43 °F (Sep 24, 7:00 AM)33% (Sep 13, 4:00 PM)29.79 "Hg (Sep 17, 1:00 AM)
Average61 °F77%30.05 "Hg
* Reported Sep 11 6:00 PM — Sep 26 6:00 PM, Eferding, Weather by CustomWeather, © 2016

Note: Actual official high and low records may vary slightly from our data, if they occured in-between our weather recording intervals... More about our weather records

Advertising

Eferding Weather History for the Previous 24 Hours

Scroll right to see more
 ConditionsComfort  
Time TempWeatherWind HumidityBarometerVisibility
6:00 PM
Mon, Sep 26
69 °FOvercast.N/A52%30.12 "Hg25 mi
4:00 PMN/APassing clouds.20 mphN/AN/A1 mi
3:00 PM68 °FOvercast.N/A57%30.14 "Hg13 mi
2:00 PM65 °FOvercast.N/A67%30.16 "Hg7 mi
1:00 PM63 °FOvercast.N/A76%30.17 "Hg6 mi
12:00 PM58 °FPartly sunny.N/A86%30.19 "Hg4 mi
11:00 AMN/APassing clouds.17 mphN/AN/A4 mi
10:00 AM51 °FLow clouds.N/A98%30.22 "Hg1 mi
9:00 AM50 °FLight rain. Dense fog.N/A100%30.22 "Hg0 mi
8:00 AM49 °FLight rain. Dense fog.N/A100%30.21 "Hg0 mi
7:00 AM46 °FLight rain. Dense fog.N/A100%30.21 "Hg0 mi
6:00 AM46 °FLight rain. Passing clouds.N/A97%30.20 "Hg0 mi
5:00 AM47 °FLight rain. Passing clouds.N/A98%30.19 "Hg1 mi
4:00 AM47 °FPassing clouds.N/A97%30.18 "Hg1 mi
2:00 AMN/APassing clouds.3 mphN/AN/A2 mi
1:00 AM50 °FCool.N/A97%30.18 "Hg6 mi
12:00 AM51 °FCool.N/A95%30.17 "Hg6 mi
11:00 PM
Sun, Sep 25
52 °FCool.N/A95%30.17 "Hg5 mi
10:00 PM56 °FCool.N/A86%30.15 "Hg13 mi
9:00 PM58 °FCool.N/A80%30.14 "Hg16 mi
8:00 PM61 °FPassing clouds.N/A72%30.11 "Hg25 mi
7:00 PM66 °FPassing clouds.N/A57%30.09 "Hg28 mi
Weather by CustomWeather, © 2016

See weather overviewHow to use our weather pages